• En España
  • Lista de países
  • Para 7 días
  • Temperatura del agua
  • Mapa Satelital
  • El tiempo en el mapa
  • Informadores
  • user-avatar
    Iniciar sesión

    Tiempo cada hora Valbom

    Hoy, 25 Noviembre, Sábado

    Tiempo Temperatura Precipitaciones Viento Presión Humedad
    00:00 +16°C° 0,3 mm 3 mps 761 mmHg 95%
    01:00 +16°C° 0,3 mm 3 mps 762 mmHg 95%
    02:00 +16°C° 0,3 mm 2 mps 762 mmHg 94%
    03:00 +16°C° 0,1 mm 2 mps 762 mmHg 94%
    04:00 +14°C° 0,1 mm 3 mps 762 mmHg 94%
    05:00 +14°C° 0,1 mm 3 mps 762 mmHg 93%
    06:00 +14°C° 0 mm 3 mps 763 mmHg 91%
    07:00 +14°C° 0 mm 3 mps 763 mmHg 89%
    08:00 +16°C° 0 mm 3 mps 763 mmHg 87%
    09:00 +17°C° 0 mm 3 mps 763 mmHg 81%
    10:00 +18°C° 0 mm 3 mps 764 mmHg 75%
    11:00 +19°C° 0 mm 3 mps 764 mmHg 69%
    12:00 +19°C° 0 mm 3 mps 764 mmHg 68%
    13:00 +19°C° 0 mm 3 mps 763 mmHg 66%
    14:00 +19°C° 0 mm 3 mps 763 mmHg 65%
    15:00 +18°C° 0 mm 3 mps 763 mmHg 68%
    16:00 +17°C° 0 mm 3 mps 764 mmHg 71%
    17:00 +16°C° 0 mm 3 mps 764 mmHg 74%
    18:00 +14°C° 0 mm 3 mps 764 mmHg 74%
    19:00 +14°C° 0 mm 3 mps 765 mmHg 74%
    20:00 +13°C° 0 mm 3 mps 765 mmHg 74%
    21:00 +13°C° 0 mm 3 mps 766 mmHg 73%
    22:00 +13°C° 0 mm 4 mps 766 mmHg 71%
    23:00 +12°C° 0 mm 4 mps 767 mmHg 70%

    Mañana, 26 Noviembre, Domingo

    Tiempo Temperatura Precipitaciones Viento Presión Humedad
    00:00 +12°C° 0 mm 4 mps 767 mmHg 69%
    01:00 +11°C° 0 mm 4 mps 767 mmHg 68%
    02:00 +11°C° 0 mm 4 mps 767 mmHg 67%
    03:00 +10°C° 0 mm 4 mps 767 mmHg 66%
    04:00 +10°C° 0 mm 4 mps 768 mmHg 66%
    05:00 +8°C° 0 mm 4 mps 768 mmHg 66%
    06:00 +10°C° 0 mm 4 mps 768 mmHg 63%
    07:00 +10°C° 0 mm 4 mps 769 mmHg 61%
    08:00 +10°C° 0 mm 4 mps 769 mmHg 58%
    09:00 +12°C° 0 mm 4 mps 769 mmHg 54%
    10:00 +13°C° 0 mm 4 mps 769 mmHg 49%
    11:00 +16°C° 0 mm 3 mps 769 mmHg 45%
    12:00 +16°C° 0 mm 3 mps 769 mmHg 44%
    13:00 +16°C° 0 mm 3 mps 768 mmHg 44%
    14:00 +17°C° 0 mm 3 mps 768 mmHg 43%
    15:00 +14°C° 0 mm 3 mps 768 mmHg 48%
    16:00 +13°C° 0 mm 3 mps 768 mmHg 52%
    17:00 +11°C° 0 mm 3 mps 768 mmHg 56%
    18:00 +11°C° 0 mm 3 mps 769 mmHg 56%
    19:00 +10°C° 0 mm 3 mps 769 mmHg 57%
    20:00 +10°C° 0 mm 3 mps 769 mmHg 58%
    21:00 +10°C° 0 mm 3 mps 769 mmHg 58%
    22:00 +10°C° 0 mm 3 mps 769 mmHg 57%
    23:00 +10°C° 0 mm 3 mps 769 mmHg 57%

    Pasado mañana, 27 Noviembre, Lunes

    Tiempo Temperatura Precipitaciones Viento Presión Humedad
    00:00 +10°C° 0 mm 3 mps 769 mmHg 57%
    01:00 +9°C° 0 mm 3 mps 769 mmHg 57%
    02:00 +9°C° 0 mm 3 mps 768 mmHg 57%
    03:00 +9°C° 0 mm 3 mps 768 mmHg 58%
    04:00 +9°C° 0 mm 3 mps 768 mmHg 59%
    05:00 +8°C° 0 mm 3 mps 768 mmHg 61%
    06:00 +9°C° 0 mm 3 mps 768 mmHg 59%
    07:00 +9°C° 0 mm 3 mps 768 mmHg 58%
    08:00 +10°C° 0 mm 3 mps 768 mmHg 57%
    09:00 +13°C° 0 mm 2 mps 768 mmHg 53%
    10:00 +14°C° 0 mm 2 mps 768 mmHg 48%
    11:00 +16°C° 0 mm 2 mps 767 mmHg 43%
    12:00 +18°C° 0 mm 1 mps 767 mmHg 43%
    13:00 +18°C° 0 mm 1 mps 766 mmHg 42%
    14:00 +19°C° 0 mm 1 mps 766 mmHg 42%
    15:00 +18°C° 0 mm 1 mps 765 mmHg 46%
    16:00 +15°C° 0 mm 1 mps 765 mmHg 50%
    17:00 +14°C° 0 mm 1 mps 765 mmHg 54%
    18:00 +14°C° 0 mm 1 mps 765 mmHg 56%
    19:00 +13°C° 0 mm 1 mps 765 mmHg 57%
    20:00 +13°C° 0 mm 2 mps 765 mmHg 58%
    21:00 +13°C° 0 mm 2 mps 765 mmHg 58%
    22:00 +13°C° 0 mm 2 mps 765 mmHg 58%
    23:00 +13°C° 0 mm 2 mps 765 mmHg 58%

    28 Noviembre, Martes

    Tiempo Temperatura Precipitaciones Viento Presión Humedad
    00:00 +13°C° 0,2 mm 2 mps 764 mmHg 62%
    01:00 +12°C° 0,2 mm 2 mps 763 mmHg 66%
    02:00 +12°C° 0,2 mm 2 mps 763 mmHg 70%
    03:00 +12°C° 0,2 mm 2 mps 763 mmHg 71%
    04:00 +12°C° 0,2 mm 2 mps 762 mmHg 73%
    05:00 +12°C° 0,2 mm 2 mps 762 mmHg 75%
    06:00 +13°C° 0,4 mm 2 mps 761 mmHg 76%
    07:00 +13°C° 0,4 mm 2 mps 761 mmHg 77%
    08:00 +13°C° 0,4 mm 2 mps 761 mmHg 78%
    09:00 +14°C° 0,2 mm 2 mps 761 mmHg 76%
    10:00 +15°C° 0,2 mm 2 mps 760 mmHg 73%
    11:00 +17°C° 0,2 mm 2 mps 760 mmHg 71%
    12:00 +16°C° 0,2 mm 2 mps 759 mmHg 73%
    13:00 +16°C° 0,2 mm 2 mps 758 mmHg 75%
    14:00 +16°C° 0,2 mm 2 mps 757 mmHg 76%
    15:00 +16°C° 0,3 mm 2 mps 757 mmHg 79%
    16:00 +14°C° 0,3 mm 3 mps 756 mmHg 81%
    17:00 +14°C° 0,3 mm 3 mps 756 mmHg 83%
    18:00 +13°C° 0,6 mm 3 mps 756 mmHg 85%
    19:00 +13°C° 0,6 mm 3 mps 755 mmHg 86%
    20:00 +13°C° 0,6 mm 3 mps 755 mmHg 87%
    21:00 +13°C° 0,6 mm 3 mps 755 mmHg 88%
    22:00 +13°C° 0,6 mm 3 mps 754 mmHg 88%
    23:00 +13°C° 0,6 mm 3 mps 754 mmHg 88%

    29 Noviembre, Miércoles

    Tiempo Temperatura Precipitaciones Viento Presión Humedad
    00:00 +12°C° 0,7 mm 3 mps 753 mmHg 88%
    01:00 +12°C° 0,7 mm 3 mps 753 mmHg 88%
    02:00 +12°C° 0,7 mm 4 mps 753 mmHg 88%
    03:00 +12°C° 0,3 mm 4 mps 753 mmHg 87%
    04:00 +11°C° 0,3 mm 4 mps 752 mmHg 87%
    05:00 +10°C° 0,3 mm 5 mps 752 mmHg 86%
    06:00 +10°C° 0 mm 5 mps 753 mmHg 83%
    07:00 +10°C° 0 mm 5 mps 753 mmHg 81%
    08:00 +10°C° 0 mm 5 mps 753 mmHg 79%
    09:00 +12°C° 0 mm 5 mps 753 mmHg 71%
    10:00 +13°C° 0 mm 5 mps 753 mmHg 64%
    11:00 +14°C° 0 mm 5 mps 753 mmHg 56%
    12:00 +14°C° 0 mm 5 mps 753 mmHg 55%
    13:00 +14°C° 0 mm 5 mps 753 mmHg 54%
    14:00 +15°C° 0 mm 5 mps 753 mmHg 53%
    15:00 +13°C° 0 mm 5 mps 754 mmHg 57%
    16:00 +12°C° 0 mm 5 mps 754 mmHg 62%
    17:00 +10°C° 0 mm 5 mps 755 mmHg 66%
    18:00 +9°C° 0 mm 5 mps 755 mmHg 67%
    19:00 +9°C° 0 mm 5 mps 756 mmHg 68%
    20:00 +8°C° 0 mm 4 mps 757 mmHg 69%
    21:00 +8°C° 0 mm 4 mps 757 mmHg 68%
    22:00 +8°C° 0 mm 4 mps 757 mmHg 67%
    23:00 +7°C° 0 mm 4 mps 758 mmHg 67%

    30 Noviembre, Jueves

    Tiempo Temperatura Precipitaciones Viento Presión Humedad
    00:00 +8°C° 0 mm 3 mps 758 mmHg 66%
    01:00 +8°C° 0 mm 3 mps 758 mmHg 65%
    02:00 +8°C° 0 mm 3 mps 758 mmHg 65%
    03:00 +7°C° 0 mm 3 mps 759 mmHg 66%
    04:00 +7°C° 0 mm 3 mps 759 mmHg 67%
    05:00 +5°C° 0 mm 3 mps 759 mmHg 68%
    06:00 +7°C° 0 mm 3 mps 760 mmHg 66%
    07:00 +7°C° 0 mm 3 mps 761 mmHg 64%
    08:00 +7°C° 0 mm 2 mps 761 mmHg 62%
    09:00 +9°C° 0 mm 2 mps 761 mmHg 55%
    10:00 +12°C° 0 mm 2 mps 761 mmHg 48%
    11:00 +13°C° 0 mm 2 mps 761 mmHg 41%
    12:00 +13°C° 0 mm 2 mps 761 mmHg 41%
    13:00 +13°C° 0 mm 3 mps 761 mmHg 40%
    14:00 +13°C° 0 mm 3 mps 761 mmHg 39%
    15:00 +11°C° 0 mm 3 mps 762 mmHg 45%
    16:00 +10°C° 0 mm 3 mps 762 mmHg 50%
    17:00 +8°C° 0 mm 4 mps 763 mmHg 55%
    18:00 +8°C° 0 mm 3 mps 763 mmHg 57%
    19:00 +8°C° 0 mm 3 mps 764 mmHg 60%
    20:00 +7°C° 0 mm 3 mps 764 mmHg 62%
    21:00 +7°C° 0 mm 3 mps 764 mmHg 63%
    22:00 +5°C° 0 mm 3 mps 764 mmHg 65%
    23:00 +5°C° 0 mm 3 mps 765 mmHg 66%
    Mostrar más